Estación municipal de St. Julià de Vilatorta (Osona, E.N.Guilleries-Savassona)

Consulta los datos en tiempo real de la estación municipal de St. Julià de Vilatorta





Hora UTC 14:40
Temperatura 18.5 ºC
Subsuelo 10 cm 22.3 ºC
Humedad 58.4 %
Presión 1012.5 hPa
Pluja 0.0 mm
Velocidad viento 3.6 km/h
Dirección viento W
Radiación solar 760.7 W/m²
Fuel 7.1 %

Webcam

Datos diarios 2026-05-08



Hora UTC (invierno +1h; verano +2h)
Temperatura (ºC) Humedad (%) Presión (hPa) Velocidad viento (km/h) Precipitación (mm) Fuel (%) Radiación solar (W/m²)
Hora UTC Aire Subsuelo 10 cm Humedad Presión Vel. Dir. Vel. Max Dir. Intent. máx 5 min. Fuel Rad. Sol.
00:05 8.9 6.9 93.1 1012.4 2.6 E 2.6 E 0.0 9.2 0.0
00:10 8.8 6.9 93.2 1012.4 1.7 ESE 3.4 E 0.0 9.3 0.0
00:15 8.7 7.0 93.5 1012.3 1.3 SE 2.5 E 0.0 9.3 0.0
00:20 8.7 7.1 93.9 1012.3 2.0 SE 3.8 ESE 0.0 9.4 0.0
00:25 8.8 7.1 93.8 1012.2 1.7 SSE 3.1 SSE 0.0 9.4 0.0
00:30 8.6 7.2 93.1 1012.2 1.4 SSE 3.2 SSE 0.0 9.5 0.0
00:35 8.5 7.2 93.4 1012.2 2.1 S 3.3 SSE 0.0 9.5 0.0
00:40 8.4 7.2 93.3 1012.2 2.8 SSE 3.7 SE 0.0 9.6 0.0
00:45 8.3 7.3 93.6 1012.2 2.0 SE 3.6 SE 0.0 9.6 0.0
00:50 8.3 7.3 93.8 1012.3 1.7 SSE 2.8 SSE 0.0 9.6 0.0
00:55 8.3 7.3 94.2 1012.2 1.0 ESE 2.7 E 0.0 9.7 0.0
01:00 8.4 7.3 94.6 1012.2 2.3 E 3.6 E 0.0 9.7 0.1
01:05 8.5 7.3 94.2 1012.1 2.2 SE 3.7 E 0.0 9.8 0.0
01:10 8.5 7.3 93.8 1012.0 2.3 ESE 4.0 ESE 0.0 9.8 0.0
01:15 8.5 7.3 93.8 1011.9 2.4 SE 3.8 ESE 0.0 9.8 0.0
01:20 8.5 7.3 93.0 1011.9 3.0 SE 5.4 SE 0.0 9.9 0.0
01:25 8.4 7.3 93.1 1011.9 3.6 SSE 5.3 SSE 0.0 9.9 0.0
01:30 8.4 7.2 92.6 1011.9 3.6 SSE 5.1 SSE 0.0 10.0 0.0
01:35 8.4 7.2 92.5 1011.9 2.3 SSE 4.0 SSE 0.0 10.0 0.0
01:40 8.4 7.2 92.3 1011.9 2.4 SSE 4.1 SE 0.0 10.0 0.0
01:45 8.4 7.2 92.4 1011.8 2.8 SSE 4.8 SE 0.0 10.0 0.0
01:50 8.3 7.1 92.5 1011.8 2.4 SE 4.4 SSE 0.0 10.1 0.0
01:55 8.2 7.1 92.7 1011.8 2.1 ESE 3.7 ESE 0.0 10.1 0.0
02:00 8.1 7.0 93.2 1011.8 3.5 E 5.8 E 0.0 10.1 0.0
02:05 8.0 6.9 93.7 1011.7 3.9 ESE 5.7 ESE 0.0 10.2 0.0
02:10 8.1 6.8 93.8 1011.7 3.3 ESE 5.7 E 0.0 10.2 0.0
02:15 8.1 6.7 93.7 1011.6 1.9 SE 3.1 SE 0.0 10.3 0.0
02:20 8.1 6.6 93.6 1011.6 2.2 SE 4.2 SE 0.0 10.3 0.0
02:25 8.1 6.6 93.5 1011.6 2.6 ESE 5.4 E 0.0 10.4 0.0
02:30 8.0 6.5 93.4 1011.6 3.5 ESE 5.9 ENE 0.0 10.4 0.0
02:35 8.0 6.4 93.8 1011.7 2.9 SE 4.8 ESE 0.0 10.5 0.0
02:40 7.8 6.3 93.9 1011.6 3.0 SE 5.7 ESE 0.0 10.5 0.0
02:45 7.8 6.2 94.0 1011.6 2.5 ESE 4.2 ESE 0.0 10.6 0.0
02:50 7.7 6.2 93.8 1011.6 2.9 E 4.8 ENE 0.0 10.6 0.0
02:55 7.5 6.0 94.1 1011.7 2.3 ENE 5.7 E 0.0 10.6 0.0
03:00 7.4 5.9 94.4 1011.6 3.2 ENE 5.4 E 0.0 10.7 0.0
03:05 7.3 5.8 94.9 1011.5 2.9 E 4.8 E 0.0 10.7 0.0
03:10 7.2 5.6 95.1 1011.5 1.1 S 2.2 SW 0.0 10.8 0.0
03:15 7.1 5.4 94.8 1011.5 0.7 ESE 1.4 ESE 0.0 10.8 0.0
03:20 7.0 5.1 95.6 1011.5 1.5 SSE 2.6 SE 0.0 10.8 0.0
03:25 6.9 5.0 95.5 1011.5 1.8 SE 3.6 ESE 0.0 10.9 0.0
03:30 6.8 4.8 95.5 1011.4 1.1 SE 2.5 SE 0.0 11.0 0.0
03:35 6.6 4.7 95.0 1011.4 1.6 SE 2.8 SE 0.0 11.0 0.0
03:40 6.5 4.5 95.2 1011.4 0.7 SSE 1.9 SSE 0.0 11.0 0.0
03:45 6.3 4.4 95.3 1011.4 1.5 ESE 3.5 ESE 0.0 11.1 0.0
03:50 6.4 4.3 96.3 1011.4 3.1 SE 4.7 ESE 0.0 11.1 0.0
03:55 6.4 4.2 96.1 1011.4 2.2 SE 3.7 SSE 0.0 11.2 0.0
04:00 6.3 4.2 96.1 1011.4 3.4 E 5.0 ESE 0.0 11.3 0.0
04:05 6.2 4.1 96.3 1011.5 3.3 ESE 4.9 ESE 0.0 11.3 0.0
04:10 6.2 4.1 96.4 1011.5 3.5 ESE 4.9 E 0.0 11.4 0.0
04:15 6.1 4.0 96.3 1011.5 3.9 ESE 5.2 ESE 0.0 11.4 0.0
04:20 6.0 4.0 96.0 1011.5 3.3 ESE 4.9 SE 0.0 11.5 0.0
04:25 5.9 4.0 96.2 1011.5 3.0 ESE 4.6 E 0.0 11.5 0.0
04:30 5.7 3.9 96.1 1011.5 2.6 ESE 4.1 E 0.0 11.6 0.1
04:35 5.8 3.8 96.7 1011.5 2.7 SSE 3.6 SSE 0.0 11.6 0.5
04:40 5.7 3.7 96.7 1011.6 3.0 SE 4.6 SE 0.0 11.7 1.3
04:45 5.9 3.6 96.7 1011.6 2.4 SE 3.9 SE 0.0 11.7 2.7
04:50 5.8 3.6 96.4 1011.7 1.5 SSE 3.4 SSE 0.0 11.8 4.3
04:55 5.7 3.6 96.5 1011.7 1.0 SSE 2.1 SSE 0.0 11.8 6.2
05:00 5.6 3.6 96.4 1011.8 2.0 SE 3.1 SE 0.0 11.8 9.4
05:05 5.5 3.6 96.6 1011.8 2.9 E 4.7 ENE 0.0 11.9 12.5
05:10 5.4 3.6 96.7 1011.8 3.3 E 5.2 ENE 0.0 12.0 16.2
05:15 5.6 3.6 97.5 1011.8 2.2 SE 3.9 ESE 0.0 12.0 20.6
05:20 5.7 3.7 97.1 1011.8 3.0 SSE 4.5 SE 0.0 12.1 23.0
05:25 5.5 3.8 96.6 1011.9 2.3 SSE 4.5 SE 0.0 12.1 31.4
05:30 5.6 3.9 97.1 1012.0 1.7 ESE 3.5 ESE 0.0 12.1 63.3
05:35 5.8 4.0 97.5 1012.0 2.9 ESE 4.4 ESE 0.0 12.2 39.7
05:40 6.1 4.2 97.6 1012.0 2.8 ESE 4.5 ESE 0.0 12.3 52.7
05:45 6.5 4.3 97.1 1012.0 2.2 NE 3.6 NNE 0.0 12.3 51.2
05:50 6.5 4.4 95.8 1012.1 2.4 NE 4.1 NE 0.0 12.4 38.6
05:55 6.8 4.5 96.2 1012.2 1.6 N 3.3 NNE 0.0 12.4 39.0
06:00 7.0 4.7 96.1 1012.2 3.1 NNW 5.2 N 0.0 12.5 46.7
06:05 7.2 4.8 94.6 1012.3 3.0 NNW 5.9 NNW 0.0 12.5 147.5
06:10 7.5 5.0 92.7 1012.3 5.8 NNW 8.2 NNW 0.0 12.5 207.9
06:15 7.8 5.2 90.5 1012.3 5.5 NNW 7.6 NNW 0.0 12.5 221.5
06:20 8.1 5.5 89.2 1012.3 5.2 NNW 8.5 NNW 0.0 12.5 236.6
06:25 8.5 5.9 87.1 1012.4 3.8 N 6.6 N 0.0 12.5 254.6
06:30 8.8 6.5 85.4 1012.4 4.7 N 9.2 N 0.0 12.5 276.1
06:35 8.9 7.3 84.6 1012.5 5.9 NNW 7.7 NNW 0.0 12.4 298.3
06:40 9.0 8.1 83.9 1012.5 5.7 N 7.3 N 0.0 12.3 317.6
06:45 9.2 8.8 83.5 1012.5 4.8 NNW 6.8 NNW 0.0 12.2 311.0
06:50 9.4 9.3 82.6 1012.5 4.3 NNW 7.2 N 0.0 12.1 322.1
06:55 9.7 9.7 82.5 1012.6 2.7 NW 5.4 NW 0.0 12.0 352.1
07:00 10.2 10.2 80.9 1012.6 2.7 NNW 4.2 NNW 0.0 12.0 355.0
07:05 10.6 10.9 80.4 1012.5 2.5 NNW 5.0 NNW 0.0 11.9 373.4
07:10 11.1 11.5 80.1 1012.5 2.4 WNW 4.4 NW 0.0 11.8 392.7
07:15 11.5 12.0 78.1 1012.5 4.0 NW 7.2 NNW 0.0 11.7 420.0
07:20 11.1 12.5 79.1 1012.5 4.0 NW 6.0 NW 0.0 11.5 438.1
07:25 11.2 13.2 79.0 1012.5 3.5 NNW 5.8 WNW 0.0 11.4 454.5
07:30 11.4 13.8 78.7 1012.5 3.8 N 6.0 N 0.0 11.3 458.4
07:35 11.6 14.8 77.8 1012.6 3.3 N 5.3 NNW 0.0 11.2 497.6
07:40 11.9 15.1 77.6 1012.6 3.6 N 5.9 N 0.0 11.1 495.1
07:45 11.9 15.6 77.5 1012.5 3.9 NNW 6.6 WNW 0.0 11.0 491.6
07:50 12.2 15.7 76.9 1012.6 3.5 NNW 5.5 N 0.0 10.9 488.3
07:55 12.3 16.1 76.0 1012.6 2.5 NNW 5.3 NW 0.0 10.8 474.0
08:00 12.6 16.5 76.5 1012.6 2.4 NNW 5.3 NNW 0.0 10.7 496.0
08:05 13.0 16.9 75.4 1012.6 2.6 NNW 5.0 NW 0.0 10.7 503.5
08:10 13.4 17.5 75.3 1012.6 3.0 NW 5.8 WNW 0.0 10.6 572.4
08:15 13.7 18.0 74.7 1012.6 2.7 N 5.0 NNW 0.0 10.5 518.0
08:20 13.6 18.5 73.2 1012.6 2.6 N 4.7 NNE 0.0 10.4 527.2
08:25 14.1 18.9 74.3 1012.6 2.5 NNW 5.3 NNW 0.0 10.3 579.3
08:30 14.2 19.4 70.5 1012.6 3.7 N 6.4 NNW 0.0 10.3 597.8
08:35 14.1 19.9 70.3 1012.6 2.7 NNW 6.6 N 0.0 10.2 594.2
08:40 14.6 20.2 70.8 1012.6 3.8 NW 6.6 NNW 0.0 10.1 568.0
08:45 14.5 20.4 68.1 1012.7 4.1 NNW 7.8 NNW 0.0 10.0 540.0
08:50 14.7 20.9 67.7 1012.7 4.7 NNW 8.0 NW 0.0 9.9 558.7
08:55 14.9 21.4 66.4 1012.8 4.7 NW 8.0 NW 0.0 9.8 616.3
09:00 15.2 21.5 65.8 1012.8 3.3 WNW 7.1 NW 0.0 9.7 591.5
09:05 15.6 22.0 61.8 1012.8 4.1 NW 7.2 NW 0.0 9.6 536.1
09:10 15.7 22.2 61.6 1012.9 3.1 W 7.0 WNW 0.0 9.5 435.7
09:15 16.1 22.3 60.4 1013.0 2.9 WSW 6.6 SSW 0.0 9.4 485.7
09:20 16.6 22.2 58.1 1013.1 4.0 SW 9.3 SW 0.0 9.2 413.3
09:25 16.3 22.1 55.8 1013.1 3.5 SW 8.1 SSW 0.0 9.1 347.3
09:30 16.2 21.7 58.6 1013.1 3.7 W 8.5 NW 0.0 9.0 302.2
09:35 16.2 21.4 59.5 1013.2 4.1 SW 8.0 SW 0.0 8.9 307.5
09:40 16.3 21.1 58.9 1013.3 3.7 WSW 7.7 SSW 0.0 8.8 332.7
09:45 16.0 21.0 60.0 1013.3 4.4 SW 7.8 NW 0.0 8.8 331.0
09:50 16.3 20.9 61.0 1013.4 3.8 SSW 7.7 SSW 0.0 8.7 285.1
09:55 16.5 20.7 58.8 1013.4 1.9 SW 4.0 WNW 0.0 8.6 267.3
10:00 16.2 20.5 61.1 1013.4 2.7 SW 5.0 WSW 0.0 8.6 248.6
10:05 15.9 20.3 61.5 1013.4 2.4 WNW 5.6 W 0.0 8.5 251.3
10:10 15.9 20.3 62.6 1013.4 2.3 W 5.2 SSW 0.0 8.5 295.3
10:15 16.1 20.6 62.2 1013.3 2.3 NW 4.7 NW 0.0 8.5 344.3
10:20 16.1 21.3 62.2 1013.3 3.9 WNW 7.5 N 0.0 8.4 487.4
10:25 16.8 22.2 60.0 1013.3 1.7 ESE 4.0 ESE 0.0 8.4 534.8
10:30 17.1 22.8 57.2 1013.2 3.8 NNW 8.5 WNW 0.0 8.4 433.6
10:35 16.9 23.1 55.1 1013.2 3.9 WNW 9.6 NW 0.0 8.2 520.5
10:40 17.6 23.4 54.7 1013.2 4.4 WSW 8.6 WSW 0.0 8.1 493.0
10:45 17.4 23.6 55.1 1013.2 4.5 W 10.2 WSW 0.0 8.0 425.6
10:50 17.5 23.6 56.4 1013.1 4.3 WSW 10.8 W 0.0 7.9 464.7
10:55 17.7 23.8 53.7 1013.1 4.6 WSW 9.6 W 0.0 7.9 532.5
11:00 17.3 23.6 54.9 1013.0 4.9 W 9.9 WNW 0.0 7.9 421.3
11:05 17.6 23.7 54.6 1012.9 2.9 SSW 6.5 SSW 0.0 7.7 514.3
11:10 18.1 24.1 54.8 1012.9 4.1 W 10.9 S 0.0 7.7 610.6
11:15 18.1 24.3 54.0 1012.9 4.8 W 9.7 WNW 0.0 7.6 512.8
11:20 18.0 24.8 55.1 1012.8 5.0 WSW 10.3 SSW 0.0 7.6 597.9
11:25 18.5 25.4 52.4 1012.8 4.1 SW 10.7 SSW 0.0 7.5 676.1
11:30 17.8 26.4 51.5 1012.7 2.8 NNW 8.9 NNW 0.0 7.5 693.2
11:35 17.3 27.1 53.5 1012.7 5.9 N 9.0 NW 0.0 7.3 608.8
11:40 17.1 27.5 53.3 1012.6 5.6 N 7.9 NNW 0.0 7.3 455.2
11:45 17.1 26.8 54.1 1012.6 3.9 WNW 8.1 NW 0.0 7.1 334.3
11:50 17.1 25.4 54.7 1012.6 3.6 WSW 9.3 SSW 0.0 7.1 270.4
11:55 17.4 24.1 52.7 1012.7 6.3 SSW 13.6 SW 0.0 7.0 267.3
12:00 17.6 23.3 53.3 1012.7 6.1 SSW 13.7 SW 0.0 7.0 310.2
12:05 17.8 22.6 52.7 1012.7 4.8 SW 8.8 SSW 0.0 7.0 326.4
12:10 18.1 22.2 52.8 1012.7 3.7 SW 7.8 SSW 0.0 7.0 280.6
12:15 18.1 21.6 51.2 1012.7 4.0 SSW 6.9 SSW 0.0 7.0 210.9
12:20 17.8 21.1 55.0 1012.7 4.0 SW 10.0 SW 0.0 6.9 234.7
12:25 17.5 20.7 57.8 1012.6 5.4 SW 10.5 SW 0.0 6.9 213.1
12:30 17.2 20.1 58.7 1012.7 7.9 SSW 13.8 SSW 0.0 6.9 132.7
12:35 16.8 19.3 60.0 1012.7 5.6 SW 10.0 SW 0.0 6.9 81.9
12:40 16.6 18.6 59.5 1012.7 7.2 SSW 12.0 SW 0.0 6.9 62.8
12:45 16.3 17.9 63.7 1012.7 11.0 SSW 19.1 SW 0.0 6.9 56.1
12:50 16.0 17.2 65.7 1012.7 10.2 SSW 20.3 SSW 0.0 6.9 58.3
12:55 15.7 16.7 66.9 1012.8 15.6 SSW 23.4 SSW 0.0 6.9 77.7
13:00 15.7 16.5 67.1 1012.8 10.1 SSW 20.5 SSW 0.0 7.0 119.2
13:05 15.9 16.6 67.1 1012.8 8.9 SW 16.6 SW 0.0 7.0 171.0
13:10 16.0 16.9 66.3 1012.8 8.3 SW 14.1 SW 0.0 7.0 204.7
13:15 16.3 17.3 66.4 1012.8 6.3 SW 14.9 SSW 0.0 7.1 198.9
13:20 16.6 17.7 64.7 1012.8 5.5 SSW 10.7 SW 0.0 7.1 154.0
13:25 16.7 17.8 62.2 1012.8 3.6 SSW 7.4 SSW 0.0 7.1 88.7
13:30 16.6 17.6 64.1 1012.9 5.2 SSW 13.5 SSW 0.0 7.0 66.0
13:35 16.3 17.1 65.8 1012.9 10.4 SSW 17.4 SSW 0.0 7.0 59.5
13:40 16.1 16.7 66.1 1012.9 7.3 SW 15.8 SW 0.0 7.1 76.7
13:45 16.0 16.5 65.7 1013.0 6.7 SW 14.4 SSW 0.0 7.1 105.1
13:50 16.1 16.6 65.2 1013.0 7.4 SSW 16.3 SSW 0.0 7.1 115.9
13:55 16.1 16.6 63.9 1013.0 7.2 SSW 16.0 SSW 0.0 7.1 125.0
14:00 16.2 16.8 63.5 1013.0 4.9 SW 10.7 SW 0.0 7.1 121.1
14:05 16.4 16.9 64.2 1013.0 7.1 SW 14.7 SSW 0.0 7.1 134.5
14:10 16.4 17.0 62.4 1012.9 9.0 SW 20.5 SSW 0.0 7.1 139.6
14:15 16.4 16.9 62.9 1012.9 8.0 SSW 16.3 SSW 0.0 7.1 136.9
14:20 16.4 17.0 62.8 1012.9 6.8 SSW 11.0 SSW 0.0 7.1 178.9
14:25 16.7 17.3 62.4 1012.8 6.9 SSW 11.4 SW 0.0 7.1 230.7
14:30 17.1 18.0 61.5 1012.7 6.2 SSW 13.3 SSW 0.0 7.1 401.2
14:35 18.1 20.0 59.4 1012.6 5.6 SSW 14.1 SSW 0.0 7.2 580.6
14:40 18.5 22.3 58.4 1012.5 3.6 W 11.0 SSW 0.0 7.1 760.7
Máxima 18.5 27.5 97.6 1013.4 15.6 SSW 23.4 SSW 0.0 12.5 760.7
Mínima 5.4 3.6 51.2 1011.4 6.9
Total 0.0